Hourly Data Report for May 08, 2012

All times are specified in Local Standard Time (LST). Add 1 hour to adjust for Daylight Saving Time where and when it is observed.

OTTAWA INTL A
ONTARIO

45°19'00.000" N
75°40'00.000" W
114.90 m
6106001
71628
YOW

Download Data

Hourly Data (May 2012)
Hourly Data Report for May 8, 2012
Temp Definition
°C
Dew Point Temp Definition
°C
Rel Hum Definition
%
Wind Dir Definition
10's deg

Wind Spd Definition
km/h
Visibility Definition
km
Stn Press Definition
kPa
Hmdx Definition


Wind Chill Definition


Weather Definition


TIME
00:00 Legend Double Dagger 12.8 7.5 70 5 13 10.0 99.74     LegendNANA
01:00 Legend Double Dagger 11.2 8.6 84 6 8 9.7 99.69     Rain,Fog
02:00 Legend Double Dagger 10.2 9.8 97 6 10 4.8 99.61     Rain,Fog
03:00 Legend Double Dagger 10.1 9.8 98 9 16 4.8 99.54     Rain,Fog
04:00 Legend Double Dagger 9.7 9.4 98 8 12 8.1 99.47     Rain,Fog
05:00 Legend Double Dagger 10.7 10.6 99 11 11 4.8 99.42     Rain,Fog
06:00 Legend Double Dagger 11.5 11.4 99 8 7 4.8 99.39     Rain,Fog
07:00 Legend Double Dagger 12.3 12.2 99 12 8 4.8 99.35     Rain,Fog
08:00 Legend Double Dagger 13.0 12.7 98 12 10 4.8 99.33     Rain,Fog
09:00 Legend Double Dagger 13.2 12.9 98 15 9 4.8 99.30     Rain,Fog
10:00 Legend Double Dagger 13.7 13.2 97 20 9 4.8 99.29     Rain,Fog
11:00 Legend Double Dagger 14.1 13.5 96 20 9 4.8 99.25     Rain,Fog
12:00 Legend Double Dagger 14.1 13.3 95 21 9 8.1 99.27     Rain,Fog
13:00 Legend Double Dagger 14.0 12.9 93 21 12 8.1 99.26     Rain,Fog
14:00 Legend Double Dagger 14.7 13.8 94 20 6 10.0 99.24     Rain
15:00 Legend Double Dagger 15.1 13.7 91 19 5 10.0 99.25     Rain,Fog
16:00 Legend Double Dagger 15.1 13.7 91   0 10.0 99.26     Rain
17:00 Legend Double Dagger 15.0 13.2 89 29 7 10.0 99.26     LegendNANA
18:00 Legend Double Dagger 14.6 13.2 91   0 10.0 99.28     Drizzle
19:00 Legend Double Dagger 14.0 13.5 97   0 10.0 99.30     Cloudy
20:00 Legend Double Dagger 14.0 13.4 96 35 5 10.0 99.33     Drizzle
21:00 Legend Double Dagger 13.5 13.2 98   0 6.4 99.35     Drizzle,Fog
22:00 Legend Double Dagger 13.4 13.3 99 10 5 4.8 99.29     Fog
23:00 Legend Double Dagger 13.3 13.2 99 29 5 4.8 99.30     Fog

Notes on Data Quality.

Legend

  • E = Estimated
  • M = Missing
  • NA = Not Available
  • ‡ = Partner data that is not subject to review by the National Climate Archives
Date modified: